This is the latest recevied weather packets stored in our database for station/object N7CEE. If no packets are shown the sender has not sent any weather packets the latest 10 day(s).
| Time | Temp. | Humidity | Pressure | Rain* | Wind** | Luminosity | Snow |
|---|---|---|---|---|---|---|---|
| 1777471982 | 6.11° C | 42% | 1026 hPa | 0 mm | - | 86 W/m² | - |
| 1777471678 | 5.56° C | 43% | 1025.8 hPa | 0 mm | - | 52 W/m² | - |
| 1777471375 | 5.56° C | 43% | 1025.7 hPa | 0 mm | - | 54 W/m² | - |
| 1777471072 | 5° C | 45% | 1025.6 hPa | 0 mm | - | 32 W/m² | - |
| 1777470769 | 4.44° C | 45% | 1025.5 hPa | 0 mm | - | 41 W/m² | - |
| 1777470465 | 3.89° C | 47% | 1025.5 hPa | 0 mm | - | 29 W/m² | - |
| 1777470161 | 3.33° C | 47% | 1025.7 hPa | 0 mm | - | 23 W/m² | - |
| 1777469857 | 2.78° C | 48% | 1025.5 hPa | 0 mm | - | 26 W/m² | - |
| 1777469553 | 2.78° C | 50% | 1025.5 hPa | 0 mm | - | 20 W/m² | - |
| 1777469248 | 2.78° C | 50% | 1025.3 hPa | 0 mm | - | 19 W/m² | - |
| 1777468943 | 2.22° C | 50% | 1025.3 hPa | 0 mm | - | 21 W/m² | - |
| 1777468640 | 2.22° C | 50% | 1025.2 hPa | 0 mm | - | 15 W/m² | - |
| 1777468336 | 2.22° C | 49% | 1025.1 hPa | 0 mm | - | 14 W/m² | - |
| 1777468033 | 2.22° C | 49% | 1025.2 hPa | 0 mm | - | 12 W/m² | - |
| 1777467729 | 2.22° C | 49% | 1025.1 hPa | 0 mm | - | 11 W/m² | - |
| 1777467424 | 2.22° C | 49% | 1025.2 hPa | 0 mm | - | 9 W/m² | - |
| 1777467119 | 2.22° C | 49% | 1025.1 hPa | 0 mm | - | 7 W/m² | - |
| 1777466817 | 2.22° C | 49% | 1025 hPa | 0 mm | - | 5 W/m² | - |
| 1777466514 | 1.67° C | 49% | 1025 hPa | 0 mm | - | 3 W/m² | - |
| 1777466211 | 1.67° C | 49% | 1025.2 hPa | 0 mm | - | 2 W/m² | - |
| 1777465907 | 1.67° C | 49% | 1024.9 hPa | 0 mm | - | 1 W/m² | - |
| 1777465604 | 2.22° C | 49% | 1025 hPa | 0 mm | - | 0 W/m² | - |
| 1777465298 | 1.67° C | 49% | 1024.7 hPa | 0 mm | - | 0 W/m² | - |
| 1777464992 | 1.67° C | 49% | 1025 hPa | 0 mm | - | 0 W/m² | - |
| 1777464688 | 1.67° C | 49% | 1025 hPa | 0 mm | - | 0 W/m² | - |
* Rain latest hour (hover to see other rain measurements)
** Current wind speed in m/s (hover to see current wind gust speed)